User: anonymous   Login
Location: Choisy
(48.7685°N, 2.4187°E)
Time: 03:46:25
(UTC+00:00)
Language:

Cosmos 2219 Rocket - Orbit

View from above orbital plane
View from above orbital plane
View from above satellite
View from above satellite

Ground track
Ground track

The orbit data is extracted from the following two-line orbital elements,

1 22220U 92076B   22017.58353656  .00000225  00000-0  13702-3 0  9990
2 22220  71.0005 132.4654 0014919 244.0922 202.0271 14.16481831507682
Epoch (UTC): 17 January 2022 14:00:17
Eccentricity: 0.0014919
inclination: 71.0005°
perigee height: 826 km
apogee height: 848 km
right ascension of ascending node: 132.4654°
argument of perigee: 244.0922°
revolutions per day: 14.16481831
mean anomaly at epoch: 202.0271°
orbit number at epoch: 50768

The dashed part of the orbit path shows where the satellite is in the earth's shadow,  

DLR